Weather Roundup
Issued by NWS

Home | Current Version | Previous Version | Text Only | Print | Product List | Glossary On
Versions: 1 2 3 4 5 6 7 8 9 10 11 12 13 14 15 16 17 18 19 20 21 22 23 24 25 26 27 28 29 30 31 32 33 34 35 36 37 38 39 40 41 42 43 44 45 46 47 48 49 50
000
NZUS93 KARX 290210
HRRWXR

CURRENT HOURLY OBSERVATIONS ACROSS
MUCH OF THE UPPER MISSISSIPPI VALLEY
NATIONAL WEATHER SERVICE LA CROSSE WI
900 PM CDT THU AUG 28 2014


...SOUTHEAST MINNESOTA...


CITY           SKY/WX    TMP DP  RH WIND       PRES   REMARKS
ROCHESTER      RAIN      65  63  93 E9        29.95F FOG
ROCHESTER/MAYO CLOUDY    65  64  97 NE5       29.95S
WINONA         DRIZZLE   66  64  94 E7        29.96S
AUSTIN         CLOUDY    64  64 100 CALM      29.92S
ALBERT LEA     CLOUDY    66  64  94 E6        29.90F FOG
DODGE CENTER   LGT RAIN  64  64 100 E9        29.93F
PRESTON        CLOUDY    65  65 100 CALM      29.95S FOG
OWATONNA       HVY RAIN  66  63  88 E9        29.92S
FARIBAULT      CLOUDY    68  63  83 E6        29.92F
$$

...ELSEWHERE IN MINNESOTA...


CITY           SKY/WX    TMP DP  RH WIND       PRES   REMARKS
MINNEAPOLIS    CLOUDY    67  64  90 E13       29.93F
INTNL FALLS    CLOUDY    66  59  78 CALM      29.93S
DULUTH         CLOUDY    61  53  75 E8        30.00S
RED WING       LGT RAIN  66  64  94 SE10      29.94S
REDWOOD FALLS  CLOUDY    67  66  97 SE9       29.88S
MANKATO        CLOUDY    66  61  82 E14       29.90S
WORTHINGTON    CLOUDY    68  66  94 E9        29.88R
FAIRMONT       CLOUDY    64  63  94 E6        29.88S
$$

...SOUTHWEST WISCONSIN...


CITY           SKY/WX    TMP DP  RH WIND       PRES   REMARKS
LA CROSSE      CLOUDY    68  64  87 CALM      29.96S
PRAIRIE DU CHI CLOUDY    70  61  71 SE7       29.96S
BOSCOBEL       CLOUDY    72  60  66 MISG      29.98R
LONE ROCK      CLOUDY    73  57  57 SE12      30.00S
PLATTEVILLE    CLOUDY    68  61  80 E13       30.01S
FORT MC COY    DRIZZLE   65  63  93 N5        30.00R
CAMP DOUGLAS   CLOUDY    63  63 100 E14       30.01S
VIROQUA        CLOUDY    65  65 100 SE7       29.98S
WIS DELLS      CLOUDY    64  53  66 E8        30.03S
$$

...ELSEWHERE IN WISCONSIN...


CITY           SKY/WX    TMP DP  RH WIND       PRES   REMARKS
MILWAUKEE      CLOUDY    67  56  67 E8        30.07S
MADISON        CLOUDY    66  54  65 E9        30.04S
GREEN BAY      CLOUDY    62  56  80 E5        30.08S
EAU CLAIRE     LGT RAIN  65  64  97 E8        29.99F
BLACK RVR FLS  RAIN      65  65 100 E5        29.99F
MEDFORD        DRIZZLE   62  61  97 SE5       30.05S
WAUSAU         CLOUDY    64  61  90 SE8       30.05S
WIS RAPIDS     LGT RAIN  63  60  90 E7        30.06S
MARSHFIELD     LGT RAIN  64  62  93 SE10      30.04F FOG
RICE LAKE      CLOUDY    64  60  89 E6        30.01F
$$

...NORTHEAST IOWA...


CITY           SKY/WX    TMP DP  RH WIND       PRES   REMARKS
WATERLOO       CLOUDY    70  66  87 SE8       29.93R
DUBUQUE        CLOUDY    67  65  93 SE9       29.99S
DECORAH        CLOUDY    66  64  94 SE6       29.95R
MASON CITY     CLOUDY    69  68  96 SE9       29.92S
CHARLES CITY   CLOUDY    68  66  94 SE7       29.94S
OELWEIN        CLOUDY    68  66  94 SE9       29.96R
$$

...ELSEWHERE IN IOWA...


CITY           SKY/WX    TMP DP  RH WIND       PRES   REMARKS
DES MOINES     CLOUDY    75  71  87 SE9       29.90R
IOWA CITY      MOCLDY    69  68  96 E5        29.95R
FORT DODGE     MOCLDY    72  70  94 SE6       29.90R
MARSHALLTOWN   CLOUDY    71  70  96 SE7       29.93R
CEDAR RAPIDS   CLOUDY    69  69 100 SE7       29.94R
$$

...NORTHERN ILLINOIS...


CITY           SKY/WX    TMP DP  RH WIND       PRES   REMARKS
CHICAGO-OHARE  LGT RAIN  71  61  70 E8        30.06R
DUPAGE         LGT RAIN  68  62  81 E6        30.05S
CHICAGO-MIDWAY CLOUDY    74  65  73 E7        30.06R
MOLINE         CLOUDY    70  67  90 SE9       29.97R
ROCKFORD       CLOUDY    65  60  84 E6        30.05R
STERLING       CLOUDY    68  64  88 SE10      30.00S
PEORIA         CLOUDY    72  69  90 VRB3      30.01S
$$

NOTE: "FAIR" INDICATES FEW OR NO CLOUDS BELOW 12,000 FEET WITH NO
SIGNIFICANT WEATHER AND/OR OBSTRUCTIONS TO VISIBILITY. WIND
SPEEDS ARE IN MILES-PER-HOUR.



USA.gov is the U.S. government's official web portal to all federal, state and local government web resources and services.